Voltar ao catálogo

FENGYUN 1C DEB

AtivoPO
NORAD 32303·DEBRIS·🇨🇳 China

Lançado May 10, 1999 de Taiyuan Satellite Launch Center

Loading…

Próximas Passagens (próximas 24 horas)

TLE

EnvelhecendoSource: Space-Track

Época: Sep 6, 2026, 03:44 UTC

1 32303U 99025CWU 26249.15610783  .00003270  00000-0  13138-2 0  9990
2 32303  97.8092  19.4481 0087390 236.3629 122.9194 14.26669035660454

Acompanhe FENGYUN 1C DEB em tempo real com AllMySat

Download on the App Store